Weather observations for the past three days for
Fuaamotu International Airport
| Date | Time (+13) | Wind (mph) | Vis. (mi.) | Weather | Sky Cond. | Temperature (ºF) | Relative Humidity | Wind Chill (°F) | Heat Index (°F) | Pressure | Precipitation (in) | ||||||
|---|---|---|---|---|---|---|---|---|---|---|---|---|---|---|---|---|---|
| Air | Dwpt | 6 hour | altimeter (in) | sea level (mb) | 1 hr | 3 hr | 6 hr | ||||||||||
| Max. | Min. | ||||||||||||||||
| 03 | 11:00 | SE 10 | 0.00 | Mostly Cloudy | FEW016 BKN280 | 78.8 | 66.2 | 65% | 81 | 0 | 0.0 | ||||||
| 03 | 10:00 | SE 10 | 0.00 | Mostly Cloudy | FEW015 BKN280 | 78.8 | 68 | 70% | 81 | 0 | 0.0 | ||||||
| 03 | 09:00 | SE 9 | 0.00 | Mostly Cloudy | FEW014 BKN280 | 77 | 68 | 74% | 79 | 0 | 0.0 | ||||||
| 03 | 08:00 | SE 9 G 24 | 0.00 | Partly Cloudy | FEW014 SCT280 | 75.2 | 64.4 | 69% | 77 | 0 | 0.0 | ||||||
| 03 | 07:00 | SE 9 G 21 | 0.00 | A Few Clouds | FEW014 | 75.2 | 64.4 | 69% | 77 | 0 | 0.0 | ||||||
| 03 | 06:00 | SE 9 G 21 | 0.00 | Partly Cloudy | FEW014 SCT280 | 75.2 | 64.4 | 69% | 77 | 0 | 0.0 | ||||||
| 03 | 05:00 | SE 8 G 12 | 0.00 | Partly Cloudy | FEW014 SCT280 | 73.4 | 64.4 | 74% | 0 | 0.0 | |||||||
| 03 | 04:00 | SE 10 G 23 | 0.00 | A Few Clouds | FEW014 | 75.2 | 64.4 | 69% | 77 | 0 | 0.0 | ||||||
| 03 | 03:00 | Calm | 0.00 | A Few Clouds | FEW007 FEW014 | 75.2 | 64.4 | 69% | 77 | 0 | 0.0 | ||||||
| 03 | 02:00 | SE 10 G 23 | 0.00 | A Few Clouds | FEW014 | 75.2 | 66.2 | 74% | 77 | 0 | 0.0 | ||||||
| 03 | 01:00 | SE 10 G 22 | 0.00 | Mostly Cloudy | FEW014 BKN280 | 75.2 | 69.8 | 83% | 75 | 0 | 0.0 | ||||||
| 03 | 00:00 | SE 10 G 23 | 0.00 | Partly Cloudy | FEW014 SCT280 | 75.2 | 68 | 78% | 76 | 0 | 0.0 | ||||||
| 02 | 23:00 | E 9 G 21 | 0.00 | A Few Clouds | FEW014 | 77 | 68 | 74% | 79 | 0 | 0.0 | ||||||
| 02 | 22:00 | SE 10 G 23 | 0.00 | A Few Clouds | FEW014 | 77 | 68 | 74% | 79 | 0 | 0.0 | ||||||
| 02 | 21:00 | E 10 G 23 | 0.00 | A Few Clouds | FEW014 | 77 | 69.8 | 79% | 79 | 0 | 0.0 | ||||||
| 02 | 20:00 | E 10 G 23 | 0.00 | A Few Clouds | FEW007 FEW014TCU | 77 | 69.8 | 79% | 79 | 0 | 0.0 | ||||||
| 02 | 19:00 | E 9 G 21 | 0.00 | Light Showers Rain | FEW007 SCT014TCU BKN120 | 77 | 71.6 | 83% | 78 | 0 | 0.0 | ||||||
| 02 | 18:00 | E 9 | 0.00 | Mostly Cloudy | FEW007 FEW015TCU BKN120 | 77 | 69.8 | 79% | 79 | 0 | 0.0 | ||||||
| 02 | 17:00 | E 9 | 0.00 | Showers in Vicinity Showers | FEW007 SCT016TCU BKN120 | 78.8 | 71.6 | 79% | 82 | 0 | 0.0 | ||||||
| 02 | 16:00 | E 10 | 0.00 | Showers in Vicinity Showers | FEW007 SCT016TCU | 80.6 | 71.6 | 74% | 85 | 0 | 0.0 | ||||||
| 02 | 15:00 | SE 8 G 23 | 0.00 | A Few Clouds | FEW007 FEW016TCU | 82.4 | 71.6 | 70% | 87 | 0 | 0.0 | ||||||
| 02 | 14:00 | E 12 G 28 | 0.00 | A Few Clouds | FEW007 | 82.4 | 71.6 | 70% | 87 | 0 | 0.0 | ||||||
| 02 | 13:00 | E 10 | 0.00 | A Few Clouds | FEW007 | 82.4 | 71.6 | 70% | 87 | 0 | 0.0 | ||||||
| 02 | 12:00 | E 10 | 0.00 | Mostly Cloudy | FEW007 SCT016TCU BKN270 | 80.6 | 68 | 66% | 83 | 0 | 0.0 | ||||||
| 02 | 11:00 | SE 8 | 0.00 | Partly Cloudy | FEW006 FEW016TCU SCT270 | 82.4 | 71.6 | 70% | 87 | 0 | 0.0 | ||||||
| 02 | 10:00 | SE 8 G 22 | 0.00 | Mostly Cloudy | FEW016TCU BKN270 | 80.6 | 71.6 | 74% | 85 | 0 | 0.0 | ||||||
| 02 | 09:00 | E 9 G 22 | 0.00 | Partly Cloudy | FEW009 FEW015TCU SCT290 | 78.8 | 69.8 | 74% | 81 | 0 | 0.0 | ||||||
| 02 | 08:00 | E 12 | 0.00 | Partly Cloudy | FEW015 SCT100 | 77 | 69.8 | 79% | 79 | 0 | 0.0 | ||||||
| 02 | 07:00 | E 12 | 0.00 | Mostly Cloudy | FEW016TCU BKN100 | 75.2 | 69.8 | 83% | 75 | 0 | 0.0 | ||||||
| 02 | 06:00 | SE 13 | 0.00 | Mostly Cloudy | FEW016TCU SCT040 BKN100 | 75.2 | 71.6 | 89% | 75 | 0 | 0.0 | ||||||
| 02 | 05:00 | SE 10 | 0.00 | Light Rain | FEW016TCU SCT040 BKN100 | 75.2 | 71.6 | 89% | 75 | 0 | 0.0 | ||||||
| 02 | 04:00 | SE 12 | 0.00 | Mostly Cloudy | SCT016TCU BKN040 | 75.2 | 69.8 | 83% | 75 | 0 | 0.0 | ||||||
| 02 | 03:00 | SE 13 | 0.00 | Mostly Cloudy | SCT016TCU BKN040 | 75.2 | 71.6 | 89% | 75 | 0 | 0.0 | ||||||
| 02 | 02:00 | SE 9 | 0.00 | Partly Cloudy | FEW016TCU SCT040 | 75.2 | 71.6 | 89% | 75 | 0 | 0.0 | ||||||
| 02 | 01:00 | SE 10 | 0.00 | Mostly Cloudy | FEW015TCU BKN040 | 75.2 | 71.6 | 89% | 75 | 0 | 0.0 | ||||||
| 02 | 00:00 | E 12 | 0.00 | Light Showers Rain | FEW008 BKN016TCU | 73.4 | 73.4 | 100% | 0 | 0.0 | |||||||
| 01 | 23:00 | E 12 | 0.00 | Light Showers Rain | FEW009 BKN016TCU | 75.2 | 73.4 | 94% | 74 | 0 | 0.0 | ||||||
| 01 | 22:00 | SE 10 | 0.00 | Mostly Cloudy | FEW011 SCT016TCU BKN280 | 75.2 | 73.4 | 94% | 74 | 0 | 0.0 | ||||||
| 01 | 21:00 | SE 14 | 0.00 | Partly Cloudy | FEW016TCU SCT280 | 77 | 71.6 | 83% | 78 | 0 | 0.0 | ||||||
| 01 | 20:00 | SE 10 | 0.00 | A Few Clouds | FEW016 | 77 | 71.6 | 83% | 78 | 0 | 0.0 | ||||||
| 01 | 19:00 | SE 10 | 0.00 | Partly Cloudy | SCT016TCU | 77 | 75.2 | 94% | 78 | 0 | 0.0 | ||||||
| 01 | 18:00 | SE 9 | 0.00 | Partly Cloudy | SCT016TCU | 78.8 | 73.4 | 84% | 82 | 0 | 0.0 | ||||||
| 01 | 17:00 | SE 13 | 0.00 | A Few Clouds | FEW016 | 80.6 | 73.4 | 79% | 85 | 0 | 0.0 | ||||||
| 01 | 16:00 | SE 12 | 0.00 | Mostly Cloudy | FEW016 BKN100 | 80.6 | 75.2 | 84% | 86 | 0 | 0.0 | ||||||
| 01 | 15:00 | SE 12 | 0.00 | Mostly Cloudy | FEW016 BKN100 | 82.4 | 73.4 | 74% | 88 | 0 | 0.0 | ||||||
| 01 | 14:00 | SE 10 | 0.00 | Mostly Cloudy | FEW016 SCT100 BKN280 | 84.2 | 75.2 | 74% | 92 | 0 | 0.0 | ||||||
| 01 | 13:00 | SE 10 | 0.00 | Mostly Cloudy | FEW008 SCT016TCU BKN280 | 80.6 | 75.2 | 84% | 86 | 0 | 0.0 | ||||||
| 01 | 12:00 | SE 8 | 0.00 | Mostly Cloudy | SCT016TCU BKN280 | 80.6 | 75.2 | 84% | 86 | 0 | 0.0 | ||||||
| 01 | 11:00 | SE 10 | 0.00 | Mostly Cloudy | FEW016TCU BKN280 | 80.6 | 75.2 | 84% | 86 | 0 | 0.0 | ||||||
| 01 | 10:00 | SE 12 | 0.00 | Mostly Cloudy | FEW016TCU BKN280 | 80.6 | 75.2 | 84% | 86 | 0 | 0.0 | ||||||
| 01 | 09:00 | SE 10 | 0.00 | Mostly Cloudy | FEW016 BKN280 | 78.8 | 73.4 | 84% | 82 | 0 | 0.0 | ||||||
| 01 | 08:00 | SE 12 | 0.00 | Mostly Cloudy | FEW015TCU BKN040 | 77 | 73.4 | 89% | 78 | 0 | 0.0 | ||||||
| 01 | 07:00 | SE 9 | 0.00 | Mostly Cloudy | SCT015TCU BKN040 | 77 | 71.6 | 83% | 78 | 0 | 0.0 | ||||||
| 01 | 06:00 | SE 9 | 0.00 | Mostly Cloudy | SCT016TCU BKN040 | 77 | 73.4 | 89% | 78 | 0 | 0.0 | ||||||
| 01 | 05:00 | SE 9 | 0.00 | Mostly Cloudy | SCT016TCU BKN040 | 77 | 73.4 | 89% | 78 | 0 | 0.0 | ||||||
| 01 | 04:00 | SE 10 | 0.00 | Mostly Cloudy | SCT016TCU BKN270 | 77 | 73.4 | 89% | 78 | 0 | 0.0 | ||||||
| 01 | 03:00 | SE 9 | 0.00 | Mostly Cloudy | FEW015 BKN040 | 77 | 75.2 | 94% | 78 | 0 | 0.0 | ||||||
| 01 | 02:00 | SE 12 | 0.00 | Mostly Cloudy | FEW015 BKN040 | 77 | 73.4 | 89% | 78 | 0 | 0.0 | ||||||
| 01 | 01:00 | SE 10 | 0.00 | Partly Cloudy | FEW015 SCT035 | 77 | 73.4 | 89% | 78 | 0 | 0.0 | ||||||
| 01 | 00:00 | SE 14 G 25 | 0.00 | Partly Cloudy | FEW015 SCT035 | 77 | 73.4 | 89% | 78 | 0 | 0.0 | ||||||
| 30 | 23:00 | SE 12 G 24 | 0.00 | Mostly Cloudy | FEW015 BKN035 | 77 | 73.4 | 89% | 78 | 0 | 0.0 | ||||||
| 30 | 22:00 | SE 12 G 24 | 0.00 | Mostly Cloudy | FEW015 BKN035 | 77 | 73.4 | 89% | 78 | 0 | 0.0 | ||||||
| 30 | 21:00 | SE 12 G 26 | 0.00 | Mostly Cloudy | FEW010 BKN035 | 78.8 | 73.4 | 84% | 82 | 0 | 0.0 | ||||||
| 30 | 20:00 | SE 12 G 23 | 0.00 | Mostly Cloudy | FEW016TCU BKN035 | 77 | 71.6 | 83% | 78 | 0 | 0.0 | ||||||
| 30 | 19:00 | SE 12 G 23 | 0.00 | A Few Clouds | FEW010 FEW016TCU | 77 | 73.4 | 89% | 78 | 0 | 0.0 | ||||||
| 30 | 18:00 | SE 13 G 25 | 0.00 | A Few Clouds | FEW012 FEW018TCU | 77 | 73.4 | 89% | 78 | 0 | 0.0 | ||||||
| 30 | 17:00 | SE 14 G 25 | 0.00 | Partly Cloudy | FEW011 SCT017TCU | 80.6 | 75.2 | 84% | 86 | 0 | 0.0 | ||||||
| 30 | 16:00 | SE 14 G 25 | 0.00 | Mostly Cloudy | FEW011 BKN017TCU | 82.4 | 75.2 | 79% | 89 | 0 | 0.0 | ||||||
| 30 | 15:00 | SE 15 G 26 | 0.00 | Partly Cloudy | FEW011 SCT017TCU | 84.2 | 75.2 | 74% | 92 | 0 | 0.0 | ||||||
| 30 | 14:00 | SE 16 G 28 | 0.00 | Partly Cloudy | FEW012 SCT017TCU | 82.4 | 75.2 | 79% | 89 | 0 | 0.0 | ||||||
| 30 | 13:00 | SE 15 G 26 | 0.00 | A Few Clouds | FEW011 FEW017TCU | 82.4 | 77 | 84% | 91 | 0 | 0.0 | ||||||
| 30 | 12:00 | SE 13 G 24 | 0.00 | Partly Cloudy | FEW011 SCT016TCU | 82.4 | 75.2 | 79% | 89 | 0 | 0.0 | ||||||
| Date | Time (+13) | Wind (mph) | Vis. (mi.) | Weather | Sky Cond. | Air | Dwpt | Max. | Min. | Relative Humidity | Wind Chill (°F) | Heat Index (°F) | altimeter (in) | sea level (mb) | 1 hr | 3 hr | 6 hr |
| 6 hour | |||||||||||||||||
| Temperature (ºF) | Pressure | Precipitation (in) | |||||||||||||||